Satellite-Ground Cal/Val Site Overpasses Predictions

Prediction of Satellite NPP Overpassing Cal/Val Site: Antarctic Dome C

Ground Cal/Val Site Location: Latitude: -75.10, Longitude: 123.35; Satellite-Ground Site NADIR distance within 100 km.

Table of predicted overpasses for the next 14.0 days since TLE Epoch: 11/29/2019
Interval Starting Time Ending Time Minimum Distance Time Minimum Distance (km)
1 11/30/2019 14:48:36 11/30/2019 14:49:05 11/30/2019 14:48:51 16.49
2 12/02/2019 07:31:25 12/02/2019 07:31:55 12/02/2019 07:31:40 1.51
3 12/05/2019 14:54:50 12/05/2019 14:55:19 12/05/2019 14:55:05 20.31
4 12/06/2019 14:36:08 12/06/2019 14:36:22 12/06/2019 14:36:15 86.92
5 12/07/2019 07:37:39 12/07/2019 07:38:07 12/07/2019 07:37:53 37.27
6 12/08/2019 07:18:53 12/08/2019 07:19:13 12/08/2019 07:19:03 72.76
7 12/10/2019 15:01:07 12/10/2019 15:01:30 12/10/2019 15:01:19 57.13
8 12/11/2019 14:42:15 12/11/2019 14:42:40 12/11/2019 14:42:28 52.11
9 12/12/2019 07:43:57 12/12/2019 07:44:16 12/12/2019 07:44:06 72.45


NCC Satellite Cal/Val Overpasses Prediction Service
